Regional Weather Roundup
Issued by NWS New Orleans/Baton Rouge, LA

Home | Current Version | Previous Version | Graphics & Text | Print | Product List | Glossary On
Versions: 1 2 3 4 5 6 7 8 9 10 11 12 13 14 15 16 17 18 19 20 21 22 23 24 25 26 27 28 29 30 31 32 33 34 35 36 37 38 39 40 41 42 43 44 45 46 47 48 49 50
584
ASUS44 KLIX 221510
RWRLIX
NEW ORLEANS REGIONAL WEATHER ROUNDUP
NATIONAL WEATHER SERVICE NEW ORLEANS LA
900 AM CST SAT NOV 22 2014

NOTE: "FAIR" INDICATES FEW OR NO CLOUDS BELOW 12,000 FEET WITH NO
      SIGNIFICANT WEATHER AND/OR OBSTRUCTIONS TO VISIBILITY.
      SKY/WX - SKY CONDITION AND SIGNIFICANT WEATHER.
      TMP - AIR TEMPERATURE.     DP    - DEWPOINT TEMPERATURE.
      RH  - RELATIVE HUMIDITY.   PRES  - PRESSURE.
      HI  - HEAT INDEX.          WCI   - WIND CHILL INDEX.

*  THESE STATIONS ARE NOT NWS OR FAA STATIONS AND ARE NOT UNDER
   NWS QUALITY CONTROL.

LAZ038-040-048-061>063-065>067-069-221600-
SOUTHEAST LOUISIANA

CITY           SKY/WX    TMP DP  RH WIND       PRES   REMARKS
N.O. AUDUBON     N/A     65  55  71 MISG        N/A
N.O. INTL ARPT PTSUNNY   63  54  72 E12       30.20F
N.O. LAKEFRONT MOSUNNY   63  54  72 E13       30.22F
N.O. DOWNTOWN*   N/A     61  52  72 E3        30.22S
SLIDELL        MOSUNNY   61  51  70 E9        30.22F
BATON ROUGE    CLOUDY    60  51  72 E12       30.21S
BOOTHVILLE     PTSUNNY   67  62  84 E10       30.21S
BELLE CHASSE   PTSUNNY   65  56  72 E12       30.21F
BOGALUSA*        N/A     61  49  66 E5        30.26F
NEW ROADS*       N/A     60  51  72 E10       30.20S
GONZALES*      PTSUNNY   61  55  80 E7        30.20S
HAMMOND*       MOSUNNY   61  50  67 E9        30.24S
HOUMA*         MOSUNNY   63  57  82 NE9       30.19S
PORT FOURCHON* NOT AVBL

$$

MSZ070-080>082-221600-
SOUTHERN MISSISSIPPI

CITY           SKY/WX    TMP DP  RH WIND       PRES   REMARKS
MCCOMB         MOSUNNY   59  47  64 E8        30.24F
GULFPORT       MOSUNNY   62  49  62 E14       30.24F
BILOXI         MOSUNNY   63  49  60 E10       30.25S
PASCAGOULA     MOSUNNY   64  47  53 E9        30.26F
STENNIS ARPT*  SUNNY     63  48  59 E7        30.25S

$$

COASTAL OBSERVATIONS
LAKE AND NEARSHORE STATIONS

STATION/POSITION TIME  TEMP    WIND        PRES    WAVE
                       AIR SEA DIR/SP/G            HT/PER
                 (UTC) (F)     (DEG/KT/KT) (MB)    (FT/S)
PASCAGOULA       1500   61      70/ 15/ 18 1024.1
WAVELAND YACHT   1500   62     100/ 17/ 21 1022.9
GRAND ISLE       1500   63 61   80/ 10/ 13 1022.8
SOUTHWEST PASS   1500   71 71              1022.5
NEW CANAL        1500   64 53   80/  4/  8 1023.4
SHELL BEACH      1500   61 51   80/ 15/ 18 1022.9

OFFSHORE STATIONS

STATION/POSITION TIME  TEMP    WIND        PRES    WAVE
                       AIR SEA DIR/SP/G            HT/PER
                 (UTC) (F)     (DEG/KT/KT) (MB)    (FT/S)
64 S DAUPHIN ISL 1446   70 72   90/ 21/ 27 1024.1    7/ 8

$$




USA.gov is the U.S. government's official web portal to all federal, state and local government web resources and services.